This demonstration page uses our WeatherBlox Daily Observations layout. Learn more.

39.08367, -84.50855

Hourly Observations for June 22, 2019

Temp ( °F °C ) Dew Point ( °F °C ) Humidity (%) Winds ( mph kmh ) Pressure ( in mb ) Visibility ( mi km ) Precip ( " mm )
12:53 am 00:53 Clear 66 18.9 64 17.8 93 93 undefined N/A 29.94 1014 10 16.09344 0 0
1:53 am 01:53 Clear 67 19.4 64 17.8 91 91 VRB 5 7 29.94 1014 10 16.09344 0 0
2:53 am 02:53 Clear 66 18.9 64 17.8 93 93 Calm 29.94 1014 10 16.09344 0 0
3:53 am 03:53 Mostly Clear 66 18.9 64 17.8 93 93 Calm 29.94 1014 10 16.09344 0 0
4:53 am 04:53 Mostly Cloudy with Light Rain 67 19.4 65 18.3 93 93 W 3 6 29.97 1015 10 16.09344 0.01 0.254
5:53 am 05:53 Cloudy with Light Rain 66 18.9 65 18.3 96 96 VRB 6 9 29.97 1015 8 12.874752 0.001 0.001
6:53 am 06:53 Mostly Cloudy 65 18.3 64 17.8 97 97 ESE 5 7 30 1016 10 16.09344 0.001 0.001
7:53 am 07:53 Mostly Sunny 68 20 62 16.7 81 81 NNE 3 6 30 1016 10 16.09344 0 0
8:53 am 08:53 Cloudy 68 20 62 16.7 81 81 ENE 6 9 30.03 1017 10 16.09344 0.001 0.001
9:53 am 09:53 Cloudy with Light Rain 67 19.4 63 17.2 87 87 S 7 11 30.03 1017 10 16.09344 0.02 0.508
10:53 am 10:53 Mostly Cloudy 68 20 62 16.7 81 81 VRB 6 9 30.03 1017 10 16.09344 0.001 0.001
11:53 am 11:53 Mostly Cloudy with Light Rain 69 20.6 62 16.7 78 78 E 7 11 30.03 1017 10 16.09344 0.001 0.001
12:53 pm 12:53 Cloudy with Light Rain 69 20.6 64 17.8 84 84 NE 6 9 30.06 1018 10 16.09344 0.001 0.001
1:53 pm 13:53 Cloudy with Light Rain 70 21.1 64 17.8 82 82 ENE 6 9 30.06 1018 9 14.484096 0.01 0.254
2:38 pm 14:38 Mostly Sunny 74 23.3 64 17.8 71 71 E 8 13 30.03 1017 10 16.09344 0.001 0.001
2:53 pm 14:53 Partly Cloudy 75 23.9 64 17.8 69 69 E 9 15 30.06 1018 10 16.09344 0.001 0.001
3:53 pm 15:53 Cloudy 75 23.9 59 15 58 58 E 9 15 30.03 1017 10 16.09344 0 0
4:53 pm 16:53 Mostly Cloudy 77 25 60 15.6 56 56 ESE 6 9 30.06 1018 10 16.09344 0 0
5:53 pm 17:53 Mostly Cloudy 76 24.4 61 16.1 60 60 ENE 6 9 30.06 1018 10 16.09344 0 0
6:53 pm 18:53 Mostly Sunny 75 23.9 62 16.7 64 64 ENE 6 9 30.03 1017 10 16.09344 0 0
7:53 pm 19:53 Sunny 75 23.9 62 16.7 64 64 E 6 9 30 1016 10 16.09344 0 0
8:53 pm 20:53 Sunny 71 21.7 59 15 66 66 E 6 9 29.97 1015 10 16.09344 0 0
9:53 pm 21:53 Clear 70 21.1 59 15 68 68 Calm 30 1016 10 16.09344 0 0
10:53 pm 22:53 Clear 64 17.8 61 16.1 90 90 Calm 30.06 1018 10 16.09344 0.001 0.001
11:53 pm 23:53 Clear 63 17.2 60 15.6 90 90 Calm 30.06 1018 10 16.09344 0 0

Powered by AerisWeather